Weather History for KLSB - May, 2013

Change the Weather History Date:

Monday, May 20, 2013

  Actual Average Record
Temperature  
Mean Temperature 68 °F -  
Max Temperature 86 °F 87 °F 89 °F (2014)
Min Temperature 51 °F 48 °F 41 °F (2015)
Cooling Degree Days 4    
Growing Degree Days 18 (Base 50)    
Moisture  
Dew Point 24 °F    
Average Humidity 19    
Maximum Humidity 38    
Minimum Humidity 9    
Precipitation  
Precipitation 0.00 in - - ()
Sea Level Pressure  
Sea Level Pressure 29.95 in    
Wind  
Wind Speed 10 mph (WNW)    
Max Wind Speed 31 mph    
Max Gust Speed 41 mph    
Visibility 10 miles    
Events      
Averages and records for this station are not official NWS values.
T = Trace of Precipitation, MM = Missing Value Source: NWS Daily Summary

Daily Weather History Graph

Daily Weather History Graph

Search for Another Location

Airport or City:

Trip Planner

Search our weather history database for the weather conditions in past years. The results will help you decide how hot, cold, wet, or windy it might be!

Date:

Astronomy

May. 20, 2013 Rise Set
Actual Time 6:13 AM MDT 8:09 PM MDT
Civil Twilight 5:46 AM MDT 8:36 PM MDT
Nautical Twilight 5:13 AM MDT 9:10 PM MDT
Astronomical Twilight 4:37 AM MDT 9:45 PM MDT
Moon 3:35 PM MDT (5/20) 2:53 AM MDT (5/20)
Length of Visible Light 14h 50m
Length of Day
13h 56m
Waxing Gibbous, 75% of the Moon is Illuminated
May 20
Waxing Gibbous
May 24
Full
May 31
Last Quarter
Jun 8
New
Jun 16
First Quarter

Hourly Weather History & Observations

Time (MDT) Temp. Dew Point Humidity Pressure Visibility Wind Dir Wind Speed Gust Speed Precip Events Conditions
12:15 AM 66.2 °F 26.6 °F 23% 29.96 in 10.0 mi WNW 10.4 mph - N/A   Clear
12:35 AM 64.4 °F 26.6 °F 24% 29.96 in 10.0 mi WNW 9.2 mph - N/A   Clear
12:55 AM 64.4 °F 26.6 °F 24% 29.97 in 10.0 mi WNW 10.4 mph - N/A   Clear
1:15 AM 64.4 °F 28.4 °F 26% 29.96 in 10.0 mi WNW 10.4 mph - N/A   Clear
1:35 AM 64.4 °F 28.4 °F 26% 29.96 in 10.0 mi WNW 10.4 mph - N/A   Clear
2:15 AM 60.8 °F 28.4 °F 29% 29.96 in 10.0 mi West 6.9 mph - N/A   Clear
2:35 AM 60.8 °F 28.4 °F 29% 29.95 in 10.0 mi West 5.8 mph - N/A   Clear
2:55 AM 60.8 °F 28.4 °F 29% 29.95 in 10.0 mi NW 3.5 mph - N/A   Clear
3:35 AM 53.6 °F 26.6 °F 35% 29.96 in 10.0 mi Calm Calm - N/A   Clear
3:55 AM 55.4 °F 26.6 °F 33% 29.97 in 10.0 mi SE 3.5 mph - N/A   Clear
4:15 AM 55.4 °F 26.6 °F 33% 29.97 in 10.0 mi SW 3.5 mph - N/A   Clear
4:35 AM 59.0 °F 26.6 °F 29% 29.97 in 10.0 mi WSW 8.1 mph - N/A   Clear
4:55 AM 59.0 °F 28.4 °F 31% 29.97 in 10.0 mi West 3.5 mph - N/A   Clear
5:15 AM 57.2 °F 26.6 °F 31% 29.98 in 10.0 mi Calm Calm - N/A   Clear
5:35 AM 55.4 °F 26.6 °F 33% 29.98 in 10.0 mi Calm Calm - N/A   Clear
5:55 AM 53.6 °F 24.8 °F 33% 29.99 in 10.0 mi NNE 3.5 mph - N/A   Clear
6:15 AM 55.4 °F 26.6 °F 33% 29.99 in 10.0 mi Calm Calm - N/A   Clear
6:35 AM 51.8 °F 26.6 °F 38% 30.00 in 10.0 mi South 3.5 mph - N/A   Clear
6:55 AM 55.4 °F 26.6 °F 33% 30.00 in 10.0 mi Calm Calm - N/A   Clear
7:15 AM 60.8 °F 28.4 °F 29% 30.01 in 10.0 mi SSE 3.5 mph - N/A   Clear
7:35 AM 62.6 °F 28.4 °F 27% 30.01 in 10.0 mi Calm Calm - N/A   Clear
8:15 AM 68.0 °F 30.2 °F 24% 30.02 in 10.0 mi West 4.6 mph - N/A   Clear
8:35 AM 69.8 °F 30.2 °F 23% 30.02 in 10.0 mi NW 8.1 mph - N/A   Clear
8:55 AM 71.6 °F 32.0 °F 23% 30.02 in 10.0 mi NW 8.1 mph - N/A   Clear
9:35 AM 73.4 °F 32.0 °F 22% 30.02 in 10.0 mi West 8.1 mph - N/A   Clear
9:55 AM 73.4 °F 30.2 °F 20% 30.01 in 10.0 mi WNW 6.9 mph 17.3 mph N/A   Clear
10:15 AM 75.2 °F 30.2 °F 19% 30.00 in 10.0 mi WNW 8.1 mph 16.1 mph N/A   Clear
10:35 AM 77.0 °F 28.4 °F 17% 30.00 in 10.0 mi West 8.1 mph 19.6 mph N/A   Clear
10:55 AM 77.0 °F 28.4 °F 17% 29.99 in 10.0 mi NW 15.0 mph 18.4 mph N/A   Clear
11:15 AM 78.8 °F 24.8 °F 14% 29.99 in 10.0 mi West 12.7 mph 27.6 mph N/A   Clear
11:35 AM 80.6 °F 24.8 °F 13% 29.99 in 10.0 mi WNW 12.7 mph 24.2 mph N/A   Clear
11:55 AM 80.6 °F 24.8 °F 13% 29.99 in 10.0 mi WNW 16.1 mph 27.6 mph N/A   Clear
12:15 PM 80.6 °F 23.0 °F 12% 29.98 in 10.0 mi North - - N/A   Clear
12:55 PM 80.6 °F 23.0 °F 12% 29.97 in 10.0 mi North - - N/A   Clear
1:15 PM 82.4 °F 24.8 °F 12% 29.95 in 10.0 mi WNW 16.1 mph - N/A   Clear
1:35 PM 82.4 °F 21.2 °F 10% 29.94 in 10.0 mi North - - N/A   Clear
1:55 PM 84.2 °F 21.2 °F 10% 29.93 in 10.0 mi North - - N/A   Clear
2:15 PM 84.2 °F 23.0 °F 11% 29.93 in 10.0 mi West 19.6 mph 33.4 mph N/A   Clear
2:35 PM 86.0 °F 23.0 °F 10% 29.92 in 10.0 mi West 24.2 mph 31.1 mph N/A   Clear
2:55 PM 86.0 °F 23.0 °F 10% 29.91 in 10.0 mi WNW 29.9 mph 34.5 mph N/A   Clear
3:15 PM 86.0 °F 21.2 °F 9% 29.90 in 10.0 mi West 19.6 mph 36.8 mph N/A   Clear
3:35 PM 86.0 °F 19.4 °F 9% 29.90 in 10.0 mi West 31.1 mph 41.4 mph N/A   Clear
3:55 PM 86.0 °F 21.2 °F 9% 29.89 in 10.0 mi West 20.7 mph 33.4 mph N/A   Clear
4:15 PM 86.0 °F 23.0 °F 10% 29.88 in 10.0 mi West 21.9 mph 34.5 mph N/A   Clear
4:35 PM 86.0 °F 23.0 °F 10% 29.87 in 10.0 mi North - - N/A   Clear
4:55 PM 86.0 °F 23.0 °F 10% 29.86 in 10.0 mi West 15.0 mph 33.4 mph N/A   Clear
5:15 PM 86.0 °F 23.0 °F 10% 29.86 in 10.0 mi West 23.0 mph 32.2 mph N/A   Clear
5:35 PM 86.0 °F 21.2 °F 9% 29.86 in 10.0 mi West 19.6 mph 35.7 mph N/A   Clear
5:55 PM 84.2 °F 21.2 °F 10% 29.86 in 10.0 mi West 23.0 mph 35.7 mph N/A   Clear
6:15 PM 82.4 °F 21.2 °F 10% 29.86 in 10.0 mi West 25.3 mph 38.0 mph N/A   Clear
6:35 PM 82.4 °F 21.2 °F 10% 29.86 in 10.0 mi WNW 27.6 mph 33.4 mph N/A   Clear
6:55 PM 80.6 °F 21.2 °F 11% 29.87 in 10.0 mi West 25.3 mph 34.5 mph N/A   Clear
7:15 PM 80.6 °F 21.2 °F 11% 29.87 in 10.0 mi NW 24.2 mph 32.2 mph N/A   Clear
7:35 PM 78.8 °F 21.2 °F 12% 29.89 in 10.0 mi NW 19.6 mph 33.4 mph N/A   Clear
8:15 PM 75.2 °F 17.6 °F 11% 29.91 in 10.0 mi NW 18.4 mph 28.8 mph N/A   Clear
8:35 PM 73.4 °F 19.4 °F 13% 29.92 in 10.0 mi NW 16.1 mph - N/A   Clear
8:55 PM 71.6 °F 17.6 °F 13% 29.93 in 10.0 mi NW 16.1 mph - N/A   Clear
9:15 PM 71.6 °F 17.6 °F 13% 29.93 in 10.0 mi NW 15.0 mph - N/A   Clear
9:35 PM 71.6 °F 17.6 °F 13% 29.94 in 10.0 mi NW 15.0 mph 21.9 mph N/A   Clear
9:55 PM 69.8 °F 17.6 °F 14% 29.95 in 10.0 mi NW 16.1 mph - N/A   Clear
10:15 PM 69.8 °F 17.6 °F 14% 29.97 in 10.0 mi NW 12.7 mph - N/A   Clear
10:35 PM 69.8 °F 17.6 °F 14% 29.97 in 10.0 mi NW 15.0 mph - N/A   Clear
10:55 PM 68.0 °F 17.6 °F 15% 29.97 in 10.0 mi WNW 10.4 mph - N/A   Clear
11:15 PM 68.0 °F 17.6 °F 15% 29.98 in 10.0 mi WNW 9.2 mph - N/A   Clear
11:35 PM 66.2 °F 17.6 °F 15% 29.98 in 10.0 mi WNW 11.5 mph - N/A   Clear
11:55 PM 64.4 °F 17.6 °F 16% 29.99 in 10.0 mi NW 8.1 mph - N/A   Clear